Location: ??????
(41.3747°N, 22.5491°E)
Time: 05:16:27
(UTC+00:00)

COSMO-SKYMED 1 - Pass Details

Date: 01 December 2020
Orbit: 621 x 623 km, 97.9° (Epoch: 20 January)

Event Time Altitude Azimuth Distance (km) Brightness Sun altitude
Exits shadow 17:23:30 11° 350° (N) 1,915 5.1 -26.1°
Maximum altitude 17:27:03 30° 291° (WNW) 1,119 4.3 -26.8°
Drops below altitude 10° 17:30:49 10° 230° (SW) 1,989 5.8 -27.5°
Sets 17:33:12 0° 219° (SW) 2,890 6.6 -27.9°
